(514203) = 2015 MB136

Discovered at Kitt Peak on 2009-02-01 by Spacewatch.

Orbit

Orbit type: Main Belt

Note: WebGL enabled browser required.

epoch2023-02-25.0
epoch JD2460000.5
perihelion date2021-08-09.86962
perihelion JD2459436.36962
argument of perihelion (°)287.43208
ascending node (°)144.10619
inclination (°)7.07903
eccentricity0.0679698
perihelion distance (AU)2.5348543
Tisserand w.r.t. Jupiter3.3
ΔV w.r.t. Earth (km/sec)10.2
semimajor axis (AU)2.7197125
mean anomaly (°)123.96492
mean daily motion (°/day)0.21974520
aphelion distance (AU)2.905
period (years)4.49
P-vector [x]0.31240713
P-vector [y]0.91162862
P-vector [z]0.26708621
Q-vector [x]-0.94719657
Q-vector [y]0.27755175
Q-vector [z]0.16057301
absolute magnitude17.37
phase slope0.15
uncertainty0
referenceMPO 745323
observations used139
oppositions11
arc length (days)5689
first opposition used2007
last opposition used2023
residual rms (arc-secs)0.84
perturbers coarse indicatorM-v
perturbers precise indicator003Ek
first observation date used2007-10-15.0
last observation date used2023-05-13.0
computer nameMPCLINUX
JD of orbit computation2458172.067059
perihelion JD uncertainty (days)1.6487E-04
argument of perihelion uncertainty (°)5.9673E-05
ascending node uncertainty (°)4.5669E-05
inclination uncertainty (°)4.4453E-06
eccentricity uncertainty 6.1010E-08
perihelion distance uncertainty (AU)1.8239E-07
Minimum Orbit Intersection Distances (in AU)
for orbit epoch: 2460000.5, reference: E2023-JE0
Mercury2.23098
Venus1.82019
Earth1.55954
Mars0.9699
Jupiter2.26829
Saturn6.52472
Uranus15.698
Neptune27.2409

Observations

142 total observations over interval: 2007 10 15.36196 – 2023 05 13.393957
These data are available for download (format description).

